DW1057 Weather Reports


time (UTC)temp
F
wind
direction
speed
knots
gust
knots
rain 1hr
in
rain 24hr
in
rain mn
in
humidity
%
barometer
mb
20260906121629 71 248 0.0 0.0 0.00 0.16 0.00 86 1010.6
20260906120026 72 218 0.0 0.0 0.00 0.16 0.00 85 1010.5
20260906114528 73 235 0.0 0.0 0.00 0.16 0.00 83 1010.2
20260906113034 73 236 0.0 0.0 0.00 0.16 0.00 81 1010.1
20260906111521 73 209 0.0 0.0 0.00 0.16 0.00 83 1009.7
20260906110020 72 182 0.0 0.0 0.00 0.16 0.00 86 1009.7
20260906104519 72 236 0.0 0.0 0.00 0.16 0.00 88 1009.5
20260906103018 73 225 0.0 0.0 0.00 0.16 0.00 87 1009.4
20260906101517 73 240 0.0 0.0 0.00 0.16 0.00 86 1009.6
20260906100015 73 290 0.0 0.0 0.00 0.16 0.00 85 1009.5
20260906094514 73 236 0.0 0.0 0.00 0.16 0.00 85 1009.9
20260906093038 74 236 0.0 0.0 0.00 0.16 0.00 85 1010.2
20260906091514 74 227 0.0 0.0 0.00 0.16 0.00 84 1010.3
20260906090018 74 227 0.0 0.0 0.00 0.16 0.00 85 1010.3
20260906084517 75 230 0.0 0.0 0.00 0.16 0.00 83 1010.4
20260906083018 75 207 0.0 0.0 0.00 0.16 0.00 82 1010.2
20260906081510 75 16 0.0 0.0 0.00 0.16 0.00 82 1010.1
20260906080011 75 224 0.0 0.0 0.00 0.16 0.00 81 1010.2
20260906074523 75 69 0.0 0.0 0.00 0.16 0.00 80 1009.6
20260906073010 75 280 0.0 0.0 0.00 0.16 0.00 81 1009.6
20260906071505 75 232 0.0 0.0 0.00 0.16 0.00 80 1009.8
20260906070007 75 209 0.0 0.0 0.00 0.16 0.00 79 1010.2
20260906064504 75 43 0.0 0.0 0.00 0.16 0.00 80 1010.7
20260906063002 75 102 0.0 0.0 0.00 0.16 0.00 82 1010.4
20260906061503 74 98 0.0 0.0 0.00 0.16 0.00 82 1010.4
20260906060005 74 209 0.0 0.0 0.00 0.16 0.00 83 1010.1
20260906054606 74 220 0.0 0.0 0.00 0.16 0.00 82 1009.9
20260906054500 74 238 0.0 0.0 0.00 0.16 0.00 82 1009.8
20260906053118 75 154 0.0 0.0 0.00 0.16 0.00 81 1009.9
20260906051557 75 33 0.0 0.0 0.00 0.16 0.00 82 1009.9
20260906050055 74 225 0.0 0.0 0.00 0.16 0.00 82 1010.1
20260906044552 73 221 0.0 0.0 0.00 0.16 0.00 83 1010.2
20260906043053 73 196 0.0 0.0 0.00 0.16 0.00 84 1010.4
20260906041554 73 239 0.0 0.0 0.00 0.16 0.00 84 1010.4
20260906040046 73 218 0.0 0.0 0.00 0.16 0.00 85 1010.5
20260906034545 74 232 0.0 0.0 0.00 0.16 0.16 84 1010.4
20260906033045 74 222 0.0 0.0 0.00 0.16 0.16 83 1010.7
20260906031542 74 236 0.0 0.0 0.00 0.16 0.16 83 1010.5
20260906030048 75 240 0.0 0.0 0.00 0.16 0.16 83 1010.4
20260906024547 75 249 0.0 0.0 0.00 0.16 0.16 82 1010.5
20260906023039 75 43 0.0 0.0 0.00 0.16 0.16 82 1010.0
20260906021538 75 342 0.0 0.0 0.00 0.16 0.16 80 1009.8
20260906020038 76 280 0.0 0.0 0.00 0.16 0.16 78 1009.9
20260906014545 76 231 0.0 0.0 0.00 0.16 0.16 77 1009.7
20260906013037 76 240 0.0 0.0 0.00 0.16 0.16 80 1009.6
20260906011551 76 238 0.0 0.0 0.00 0.16 0.16 80 1009.5
20260906010058 76 217 0.0 0.0 0.00 0.16 0.16 84 1009.3
20260906004538 77 228 0.0 0.0 0.00 0.16 0.16 85 1009.2
20260906003035 78 215 0.0 0.0 0.00 0.16 0.16 83 1009.2
20260906001555 79 224 0.0 0.0 0.00 0.16 0.16 79 1009.1
20260906000034 79 303 0.0 0.0 0.00 0.16 0.16 78 1009.1
20260905234534 79 281 0.0 0.0 0.00 0.16 0.16 79 1009.4
20260905233033 79 246 0.0 0.0 0.00 0.16 0.16 81 1009.3
20260905231540 79 222 0.0 0.0 0.00 0.16 0.16 79 1009.1
20260905230037 79 259 0.0 0.0 0.00 0.16 0.16 81 1008.7
20260905224541 79 230 0.0 0.0 0.00 0.16 0.16 80 1008.9
20260905223037 80 230 0.0 0.0 0.00 0.16 0.16 78 1008.9
20260905221529 80 242 0.0 0.0 0.00 0.16 0.16 77 1008.8
20260905220028 82 240 0.0 0.0 0.00 0.16 0.16 75 1009.3
20260905214525 84 358 0.0 0.0 0.00 0.16 0.16 72 1009.6
20260905213025 85 327 0.0 0.0 0.00 0.16 0.16 71 1009.5
20260905211537 85 259 0.0 0.0 0.03 0.16 0.16 73 1009.7
20260905210024 84 303 0.0 0.0 0.16 0.16 0.16 78 1009.4
20260905204526 81 247 0.0 0.0 0.16 0.16 0.16 84 1009.6
20260905203036 80 186 0.0 0.0 0.16 0.16 0.16 85 1009.4
20260905201527 84 275 0.0 0.0 0.12 0.12 0.12 75 1010.0
20260905200020 89 245 0.0 0.0 0.00 0.00 0.00 61 1009.7
20260905194518 92 26 0.0 0.0 0.00 0.00 0.00 61 1009.8
20260905193023 89 2 0.0 0.0 0.00 0.00 0.00 60 1009.9
20260905191524 89 131 0.0 0.0 0.00 0.00 0.00 65 1010.0
20260905190013 89 337 0.0 0.0 0.00 0.00 0.00 65 1010.2
20260905184512 86 313 0.0 0.0 0.00 0.00 0.00 71 1010.3
20260905183012 87 313 0.0 0.0 0.00 0.00 0.00 68 1010.4
20260905181510 86 308 0.0 0.0 0.00 0.00 0.00 69 1010.7
20260905180008 88 33 0.0 0.0 0.00 0.00 0.00 63 1010.7
20260905174508 89 188 0.0 0.0 0.00 0.00 0.00 62 1010.7
20260905173006 90 100 0.0 0.0 0.00 0.00 0.00 65 1010.7
20260905171503 88 238 0.0 0.0 0.00 0.00 0.00 66 1010.9
20260905170001 87 238 0.0 0.0 0.00 0.00 0.00 66 1011.1
20260905164606 87 188 0.0 0.0 0.00 0.00 0.00 67 1011.2
20260905163059 87 160 0.0 0.0 0.00 0.00 0.00 68 1011.4
20260905161555 85 33 0.0 0.0 0.00 0.00 0.00 73 1011.6
20260905160051 84 213 0.0 0.0 0.00 0.00 0.00 75 1011.6
20260905154549 83 105 0.0 0.0 0.00 0.00 0.00 78 1011.7
20260905153046 82 143 0.0 0.0 0.00 0.00 0.00 79 1011.9
20260905151548 82 143 0.0 0.0 0.00 0.00 0.00 81 1011.9
20260905150050 82 218 0.0 0.0 0.00 0.00 0.00 80 1011.9
20260905144541 81 218 0.0 0.0 0.00 0.00 0.00 77 1012.0
20260905143040 80 218 0.0 0.0 0.00 0.00 0.00 78 1012.1
20260905141538 80 179 0.0 0.0 0.00 0.00 0.00 78 1012.2
20260905140043 80 305 0.0 0.0 0.00 0.00 0.00 78 1012.1
20260905134546 80 229 0.0 0.0 0.00 0.00 0.00 78 1012.2
20260905133035 79 229 0.0 0.0 0.00 0.00 0.00 77 1012.3
20260905131534 79 229 0.0 0.0 0.00 0.00 0.00 79 1012.5
20260905130040 78 229 0.0 0.0 0.00 0.00 0.00 79 1012.5
20260905124533 78 229 0.0 0.0 0.00 0.00 0.00 79 1012.5
20260905123032 77 236 0.0 0.0 0.00 0.00 0.00 81 1012.4